| time (UTC) | temp C | wind direction | speed KPH | gust KPH | rain 1hr cm | rain 24hr cm | rain mn cm | humidity % | barometer mb |
| 20260508023721 | 15 | 0 | 0.0 | 16.1 | 0.00 | 0.00 | 0.00 | 71 | 1010.7 |
| 20260508022707 | 15 | 357 | 9.7 | 12.9 | 0.00 | 0.00 | 0.00 | 71 | 1009.7 |
| 20260508021701 | 15 | 330 | 9.7 | 16.1 | 0.00 | 0.00 | 0.00 | 71 | 1009.7 |
| 20260508020658 | 15 | 320 | 11.3 | 20.9 | 0.00 | 0.00 | 0.00 | 71 | 1009.7 |
| 20260508015654 | 15 | 333 | 6.4 | 14.5 | 0.00 | 0.00 | 0.00 | 71 | 1010.7 |
| 20260508014650 | 15 | 334 | 4.8 | 16.1 | 0.00 | 0.00 | 0.00 | 71 | 1010.7 |
| 20260508013646 | 16 | 311 | 16.1 | 16.1 | 0.00 | 0.03 | 0.00 | 70 | 1010.7 |
| 20260508011625 | 16 | 309 | 6.4 | 16.1 | 0.00 | 0.03 | 0.00 | 70 | 1010.7 |
| 20260508010624 | 15 | 329 | 9.7 | 14.5 | 0.00 | 0.03 | 0.00 | 70 | 1010.7 |
| 20260508005632 | 15 | 338 | 9.7 | 11.3 | 0.00 | 0.03 | 0.00 | 71 | 1010.7 |
| 20260508004613 | 15 | 14 | 0.0 | 4.8 | 0.00 | 0.05 | 0.00 | 72 | 1010.7 |
| 20260508003609 | 16 | 349 | 3.2 | 14.5 | 0.00 | 0.05 | 0.00 | 70 | 1010.7 |
| 20260508002604 | 16 | 336 | 3.2 | 12.9 | 0.00 | 0.05 | 0.00 | 70 | 1010.7 |
| 20260508001601 | 16 | 349 | 12.9 | 12.9 | 0.00 | 0.08 | 0.00 | 70 | 1010.7 |
| 20260508000558 | 16 | 334 | 3.2 | 9.7 | 0.00 | 0.13 | 0.00 | 70 | 1010.7 |
| 20260507233550 | 15 | 35 | 3.2 | 8.0 | 0.00 | 0.23 | 0.00 | 72 | 1011.7 |
| 20260507232546 | 15 | 358 | 0.0 | 0.0 | 0.00 | 0.23 | 0.00 | 74 | 1011.7 |
| 20260507231523 | 16 | 358 | 0.0 | 0.0 | 0.00 | 0.25 | 0.00 | 72 | 1011.7 |
| 20260507230509 | 16 | 358 | 0.0 | 4.8 | 0.00 | 0.25 | 0.00 | 70 | 1011.7 |
| 20260507225458 | 16 | 359 | 1.6 | 11.3 | 0.00 | 0.25 | 0.00 | 69 | 1011.7 |
| 20260507224446 | 16 | 343 | 3.2 | 12.9 | 0.00 | 0.25 | 0.00 | 69 | 1011.7 |
| 20260507223439 | 16 | 325 | 9.7 | 16.1 | 0.00 | 0.28 | 0.00 | 69 | 1012.7 |
| 20260507222435 | 16 | 321 | 9.7 | 9.7 | 0.00 | 0.30 | 0.00 | 69 | 1011.7 |
| 20260507220429 | 16 | 318 | 1.6 | 4.8 | 0.00 | 0.30 | 0.00 | 70 | 1011.7 |
| 20260507215426 | 15 | 318 | 0.0 | 0.0 | 0.00 | 0.33 | 0.30 | 71 | 1012.7 |
| 20260507214422 | 15 | 318 | 0.0 | 0.0 | 0.00 | 0.33 | 0.30 | 73 | 1011.7 |
| 20260507213347 | 16 | 318 | 0.0 | 3.2 | 0.00 | 0.33 | 0.30 | 69 | 1011.7 |
| 20260507212344 | 16 | 318 | 0.0 | 9.7 | 0.00 | 0.38 | 0.30 | 69 | 1012.7 |
| 20260507211341 | 15 | 314 | 4.8 | 8.0 | 0.00 | 0.41 | 0.30 | 70 | 1012.7 |
| 20260507210351 | 15 | 313 | 3.2 | 8.0 | 0.00 | 0.43 | 0.30 | 71 | 1012.7 |
| 20260507205335 | 16 | 290 | 3.2 | 6.4 | 0.00 | 0.43 | 0.30 | 69 | 1011.7 |
| 20260507204330 | 16 | 343 | 1.6 | 3.2 | 0.00 | 0.43 | 0.30 | 70 | 1012.7 |
| 20260507202315 | 16 | 343 | 0.0 | 3.2 | 0.00 | 0.43 | 0.30 | 71 | 1012.7 |
| 20260507201312 | 16 | 344 | 0.0 | 0.0 | 0.00 | 0.43 | 0.30 | 71 | 1011.7 |
| 20260507200310 | 17 | 344 | 0.0 | 1.6 | 0.00 | 0.43 | 0.30 | 71 | 1011.7 |
| 20260507195255 | 17 | 344 | 0.0 | 0.0 | 0.00 | 0.43 | 0.30 | 73 | 1012.7 |
| 20260507194254 | 17 | 344 | 0.0 | 0.0 | 0.00 | 0.43 | 0.30 | 69 | 1012.7 |
| 20260507193250 | 17 | 342 | 0.0 | 3.2 | 0.00 | 0.46 | 0.30 | 69 | 1012.7 |
| 20260507192237 | 17 | 323 | 0.0 | 3.2 | 0.00 | 0.46 | 0.30 | 70 | 1012.7 |
| 20260507191233 | 18 | 322 | 3.2 | 4.8 | 0.00 | 0.46 | 0.30 | 69 | 1011.7 |
| 20260507190224 | 18 | 311 | 4.8 | 8.0 | 0.00 | 0.46 | 0.30 | 68 | 1011.7 |
| 20260507185214 | 19 | 317 | 4.8 | 11.3 | 0.00 | 0.46 | 0.30 | 65 | 1011.7 |
| 20260507184213 | 20 | 331 | 6.4 | 8.0 | 0.00 | 0.46 | 0.30 | 63 | 1011.7 |
| 20260507183210 | 20 | 324 | 4.8 | 8.0 | 0.00 | 0.46 | 0.30 | 62 | 1011.7 |
| 20260507182206 | 20 | 352 | 3.2 | 4.8 | 0.00 | 0.48 | 0.30 | 61 | 1011.7 |
| 20260507181203 | 21 | 357 | 1.6 | 3.2 | 0.00 | 0.51 | 0.30 | 60 | 1011.7 |
| 20260507180202 | 21 | 357 | 3.2 | 4.8 | 0.00 | 0.51 | 0.30 | 57 | 1011.7 |
| 20260507175157 | 21 | 358 | 0.0 | 3.2 | 0.00 | 0.51 | 0.30 | 56 | 1011.7 |
| 20260507174145 | 21 | 357 | 0.0 | 6.4 | 0.00 | 0.51 | 0.30 | 56 | 1011.7 |
| 20260507173140 | 22 | 354 | 3.2 | 8.0 | 0.00 | 0.51 | 0.30 | 54 | 1011.7 |
| 20260507172136 | 22 | 357 | 0.0 | 8.0 | 0.00 | 0.51 | 0.30 | 54 | 1011.7 |
| 20260507171134 | 22 | 9 | 0.0 | 8.0 | 0.00 | 0.51 | 0.30 | 54 | 1011.7 |
| 20260507170121 | 22 | 328 | 4.8 | 8.0 | 0.00 | 0.51 | 0.30 | 53 | 1011.7 |
| 20260507164103 | 22 | 12 | 1.6 | 11.3 | 0.00 | 0.51 | 0.30 | 54 | 1011.7 |
| 20260507162100 | 22 | 348 | 8.0 | 11.3 | 0.00 | 0.51 | 0.30 | 53 | 1011.7 |
| 20260507161044 | 22 | 339 | 4.8 | 14.5 | 0.00 | 0.51 | 0.30 | 52 | 1011.7 |
| 20260507160036 | 23 | 34 | 4.8 | 16.1 | 0.00 | 0.51 | 0.30 | 51 | 1011.7 |
| 20260507155032 | 23 | 2 | 3.2 | 12.9 | 0.00 | 0.51 | 0.30 | 50 | 1011.7 |
| 20260507154043 | 23 | 14 | 9.7 | 12.9 | 0.00 | 0.51 | 0.30 | 50 | 1011.7 |
| 20260507153032 | 22 | 58 | 0.0 | 12.9 | 0.00 | 0.51 | 0.30 | 50 | 1011.7 |
| 20260507152008 | 22 | 17 | 8.0 | 16.1 | 0.00 | 0.51 | 0.30 | 50 | 1012.7 |
| 20260507151004 | 23 | 14 | 6.4 | 17.7 | 0.00 | 0.51 | 0.30 | 49 | 1011.7 |
| 20260507150002 | 23 | 4 | 4.8 | 17.7 | 0.00 | 0.51 | 0.30 | 49 | 1011.7 |
| 20260507144959 | 23 | 30 | 3.2 | 9.7 | 0.00 | 0.51 | 0.30 | 47 | 1012.7 |
| 20260507143948 | 23 | 67 | 4.8 | 8.0 | 0.00 | 0.51 | 0.30 | 49 | 1011.7 |
| 20260507140924 | 22 | 115 | 1.6 | 6.4 | 0.00 | 0.51 | 0.30 | 50 | 1012.7 |
| 20260507134920 | 22 | 87 | 3.2 | 11.3 | 0.00 | 0.51 | 0.30 | 52 | 1012.7 |
| 20260507133914 | 23 | 53 | 3.2 | 9.7 | 0.00 | 0.51 | 0.30 | 52 | 1013.7 |
| 20260507132901 | 23 | 124 | 3.2 | 4.8 | 0.00 | 0.51 | 0.30 | 51 | 1013.7 |
| 20260507131858 | 23 | 66 | 0.0 | 4.8 | 0.00 | 0.51 | 0.30 | 51 | 1013.7 |
| 20260507130856 | 23 | 178 | 4.8 | 8.0 | 0.00 | 0.51 | 0.30 | 50 | 1013.7 |
| 20260507125850 | 23 | 145 | 3.2 | 4.8 | 0.00 | 0.51 | 0.30 | 52 | 1013.7 |
| 20260507124845 | 22 | 74 | 1.6 | 4.8 | 0.00 | 0.51 | 0.30 | 54 | 1013.7 |
| 20260507123832 | 22 | 120 | 3.2 | 6.4 | 0.00 | 0.51 | 0.30 | 57 | 1013.7 |
| 20260507122829 | 22 | 111 | 0.0 | 4.8 | 0.00 | 0.51 | 0.30 | 56 | 1013.7 |
| 20260507121826 | 22 | 69 | 3.2 | 3.2 | 0.00 | 0.51 | 0.30 | 58 | 1013.7 |
| 20260507120821 | 22 | 147 | 3.2 | 8.0 | 0.00 | 0.51 | 0.30 | 59 | 1013.7 |
| 20260507115820 | 21 | 153 | 0.0 | 3.2 | 0.00 | 0.51 | 0.30 | 60 | 1013.7 |
| 20260507114817 | 22 | 147 | 0.0 | 4.8 | 0.00 | 0.51 | 0.30 | 58 | 1013.7 |
| 20260507113759 | 22 | 127 | 0.0 | 8.0 | 0.00 | 0.51 | 0.30 | 59 | 1013.7 |
| 20260507112732 | 22 | 125 | 3.2 | 4.8 | 0.00 | 0.51 | 0.30 | 62 | 1013.7 |
| 20260507111722 | 21 | 56 | 0.0 | 3.2 | 0.00 | 0.51 | 0.30 | 62 | 1013.7 |
| 20260507105658 | 21 | 116 | 0.0 | 9.7 | 0.00 | 0.51 | 0.30 | 64 | 1013.7 |
| 20260507104641 | 21 | 28 | 0.0 | 8.0 | 0.00 | 0.51 | 0.30 | 62 | 1013.7 |
| 20260507103637 | 21 | 205 | 0.0 | 8.0 | 0.00 | 0.51 | 0.30 | 65 | 1014.7 |
| 20260507102632 | 21 | 115 | 0.0 | 9.7 | 0.00 | 0.51 | 0.30 | 65 | 1014.7 |
| 20260507101615 | 20 | 134 | 0.0 | 4.8 | 0.00 | 0.51 | 0.30 | 65 | 1014.7 |
| 20260507100610 | 20 | 48 | 3.2 | 4.8 | 0.00 | 0.51 | 0.30 | 67 | 1014.7 |
| 20260507095557 | 21 | 240 | 0.0 | 1.6 | 0.00 | 0.51 | 0.30 | 63 | 1014.7 |
| 20260507094552 | 19 | 260 | 0.0 | 1.6 | 0.00 | 0.51 | 0.30 | 66 | 1014.7 |
| 20260507093545 | 18 | 356 | 0.0 | 3.2 | 0.00 | 0.51 | 0.30 | 70 | 1014.7 |
| 20260507091526 | 18 | 334 | 3.2 | 6.4 | 0.00 | 0.51 | 0.30 | 71 | 1014.7 |
| 20260507090510 | 18 | 297 | 0.0 | 4.8 | 0.00 | 0.51 | 0.30 | 71 | 1014.7 |
| 20260507085506 | 19 | 142 | 0.0 | 3.2 | 0.00 | 0.51 | 0.30 | 67 | 1014.7 |
| 20260507084459 | 19 | 279 | 0.0 | 1.6 | 0.00 | 0.51 | 0.30 | 71 | 1014.7 |
| 20260507081422 | 20 | 113 | 0.0 | 0.0 | 0.00 | 0.51 | 0.30 | 68 | 1014.7 |
| 20260507080414 | 19 | 113 | 0.0 | 3.2 | 0.00 | 0.51 | 0.30 | 68 | 1014.7 |
| 20260507075409 | 18 | 165 | 3.2 | 3.2 | 0.00 | 0.51 | 0.30 | 70 | 1014.7 |
| 20260507074352 | 17 | 119 | 0.0 | 0.0 | 0.00 | 0.51 | 0.30 | 74 | 1014.7 |
| 20260507073338 | 17 | 13 | 0.0 | 0.0 | 0.00 | 0.51 | 0.30 | 77 | 1014.7 |
| 20260507071326 | 16 | 12 | 0.0 | 0.0 | 0.00 | 0.51 | 0.30 | 82 | 1014.7 |
| 20260507065235 | 15 | 12 | 0.0 | 0.0 | 0.00 | 0.51 | 0.30 | 83 | 1014.7 |
| 20260507062157 | 15 | 110 | 0.0 | 0.0 | 0.00 | 0.51 | 0.30 | 86 | 1014.7 |
| 20260507060124 | 14 | 129 | 0.0 | 0.0 | 0.00 | 0.51 | 0.30 | 91 | 1014.7 |
| 20260507055111 | 13 | 129 | 0.0 | 0.0 | 0.00 | 0.51 | 0.30 | 91 | 1014.7 |
| 20260507054053 | 13 | 107 | 0.0 | 0.0 | 0.00 | 0.51 | 0.30 | 92 | 1014.7 |
| 20260507053049 | 13 | 107 | 0.0 | 0.0 | 0.00 | 0.51 | 0.30 | 92 | 1014.7 |
| 20260507052039 | 13 | 107 | 0.0 | 0.0 | 0.00 | 0.51 | 0.30 | 92 | 1014.7 |
| 20260507051029 | 13 | 107 | 0.0 | 0.0 | 0.00 | 0.51 | 0.30 | 92 | 1014.7 |
| 20260507044940 | 13 | 107 | 0.0 | 0.0 | 0.00 | 0.51 | 0.30 | 92 | 1014.7 |
| 20260507043926 | 13 | 107 | 0.0 | 0.0 | 0.00 | 0.51 | 0.30 | 92 | 1014.7 |
| 20260507042910 | 13 | 107 | 0.0 | 0.0 | 0.00 | 0.51 | 0.30 | 91 | 1014.7 |
| 20260507041843 | 13 | 107 | 0.0 | 0.0 | 0.00 | 0.51 | 0.30 | 91 | 1014.7 |
| 20260507040838 | 13 | 107 | 0.0 | 0.0 | 0.00 | 0.51 | 0.30 | 91 | 1014.7 |
| 20260507035832 | 13 | 107 | 0.0 | 0.0 | 0.00 | 0.51 | 0.30 | 91 | 1014.7 |
| 20260507034821 | 13 | 107 | 0.0 | 0.0 | 0.00 | 0.51 | 0.30 | 91 | 1014.7 |
| 20260507033805 | 13 | 107 | 0.0 | 0.0 | 0.00 | 0.51 | 0.30 | 91 | 1014.7 |
| 20260507031725 | 13 | 107 | 0.0 | 0.0 | 0.00 | 0.51 | 0.30 | 91 | 1014.7 |
| 20260507030721 | 13 | 107 | 0.0 | 0.0 | 0.00 | 0.51 | 0.30 | 91 | 1014.7 |
| 20260507025657 | 13 | 107 | 0.0 | 0.0 | 0.00 | 0.51 | 0.30 | 91 | 1013.7 |
| 20260507024642 | 13 | 138 | 0.0 | 0.0 | 0.00 | 0.51 | 0.30 | 91 | 1013.7 |